Simultaneous Nadir Overpasses (SNOs) Predictions

Prediction of SNOs between AURA and NPP Satellite Orbit:

Table of predicted SNOs for the next 14.0 days since TLE Epoch: 12/18/2021
Index Date (AURA) Time (AURA) Lat,Lon (AURA) SZA (AURA ) Date (NPP) Time (NPP) Lat,Lon (NPP) SZA (NPP ) Distance(km) Time Diff (sec)
1 12/19/2021 02:51:58 79.55, 34.19 115.20 12/19/2021 02:51:57 79.54, 34.11 115.21 1.68 1
2 12/19/2021 03:40:02 -81.69,-129.62 69.15 12/19/2021 03:41:16 -81.29,-129.29 69.37 44.07 74
3 12/21/2021 18:19:07 -79.33, -19.03 64.43 12/21/2021 18:18:11 -79.32, -19.16 64.36 2.98 56
4 12/21/2021 19:08:24 79.67, 150.94 115.11 12/21/2021 19:08:45 79.67, 150.98 115.09 0.93 21
5 12/24/2021 10:35:32 -79.49, 97.91 64.61 12/24/2021 10:34:58 -79.49, 97.94 64.60 0.67 34
6 12/24/2021 11:24:53 79.67, -93.17 115.14 12/24/2021 11:25:37 79.67, -93.26 115.12 1.81 44
7 12/27/2021 02:52:00 -79.52,-145.98 64.69 12/27/2021 02:51:49 -79.52,-146.02 64.67 0.93 11
8 12/27/2021 03:41:17 79.84, 24.04 114.86 12/27/2021 03:42:23 79.85, 24.19 114.78 3.05 66
9 12/29/2021 18:19:06 79.30, 160.78 115.54 12/29/2021 18:18:01 79.30, 160.66 115.62 2.58 65



Historial Predications of SNOs between AURA and NPP
